[[{"header":{"parameterUnit":"m.s-1","parameterCategory":1,"la1":30.2991,"la2":30.254,"lo1":-89.0895,"lo2":-89.0444,"dy":0.0017,"dx":0.0017,"nx":28,"ny":28,"refTime":"2024-09-03T09:00:00:Z","depth":0,"parameterNumber":2,"parameterNumberName":"U-component_of_WINDS"},"data":[0,0,0,0,0,0,0,0,0,0,0,0,0,0,0,0,0,0,0,0,0,0,0,0,0,0,0,0,0,0,0,0,0,0,0,0,0,0,0,0,0,0,0,0,0,0,0,0,0,0,0,0,0,0,0,0,0,0,-3.4286,-3.4286,0,-3.4289,-3.4289,-3.4289,-3.4218,-3.4216,-3.4214,-3.4212,-3.4219,-3.4221,-3.4223,0,0,0,0,0,0,0,0,0,0,0,0,0,-3.4225,-3.4226,-3.4286,-3.4286,-3.4287,-3.4289,-3.4289,-3.4289,-3.4218,-3.4216,-3.4213,-3.4211,-3.4219,-3.4221,-3.4224,0,0,0,0,0,0,0,0,0,0,0,0,0,-3.4242,-3.4227,-3.4286,-3.4251,-3.4248,-3.4289,-3.4289,-3.4289,-3.4218,-3.4216,-3.4213,-3.421,-3.4218,-3.4221,-3.4224,-3.4301,0,0,-3.4233,-3.4234,0,0,0,0,0,0,0,0,-3.4241,-3.4245,-3.4256,-3.4254,-3.425,-3.425,-3.427,-3.4293,-3.4219,-3.423,-3.4212,-3.4208,-3.4232,-3.4234,-3.4241,-3.4301,-3.4301,-3.4233,-3.4235,-3.4237,-3.4237,0,0,0,0,0,0,0,-3.424,-3.4244,-3.4288,-3.4257,-3.4253,-3.4237,-3.4236,-3.4275,-3.4248,-3.4229,-3.4223,-3.4224,-3.423,-3.4238,-3.4241,-3.4302,-3.4233,-3.4236,-3.4238,-3.4239,-3.4429,-3.4432,0,0,0,0,0,0,-3.4243,-3.4244,-3.4288,-3.4288,-3.4238,-3.4241,-3.424,-3.4253,-3.4247,-3.4243,-3.4227,-3.4221,-3.4235,-3.4237,-3.4241,-3.4333,-3.4236,-3.4239,-3.4241,-3.4426,-3.443,-3.4434,0,0,0,0,0,0,-3.4242,-3.4248,-3.4287,-3.4264,-3.4268,-3.4245,-3.426,-3.4255,-3.4263,-3.4245,-3.4241,-3.424,-3.4232,-3.4236,-3.4287,-3.4332,-3.4241,-3.4243,-3.4422,-3.4427,-3.4432,-3.4517,0,0,0,0,0,0,-3.4241,-3.4248,-3.4275,-3.4265,-3.427,-3.4332,-3.4263,-3.4257,-3.4268,-3.426,-3.4256,-3.4253,-3.423,-3.4283,-3.429,-3.4335,-3.4246,-3.4418,-3.4425,-3.443,-3.451,-3.4524,-3.4536,0,0,0,0,0,-3.4239,-3.4299,-3.4277,-3.4283,-3.4303,-3.4335,-3.4337,-3.4309,-3.4271,-3.43,-3.429,-3.4253,-3.4326,-3.4289,-3.4296,-3.4342,-3.4415,-3.4423,-3.443,-3.4504,-3.4521,-3.4536,0,0,0,0,0,0,-3.4315,-3.4297,-3.4272,-3.4331,-3.4335,-3.4322,-3.4357,-3.4327,-3.4343,-3.4335,-3.43,-3.43,-3.4358,-3.4355,-3.4314,-3.4419,-3.4364,-3.4374,-3.4418,-3.4434,-3.4447,-3.4448,-3.4248,0,0,0,0,0,-3.4339,-3.4365,-3.4348,-3.4401,-3.4404,-3.4381,-3.4393,-3.4371,-3.4375,-3.4376,-3.4369,-3.4375,-3.44,-3.4417,-3.4438,-3.4509,-3.4509,-3.4545,-3.4558,-3.4569,-3.4578,-3.4619,-3.4635,-3.4458,-3.4457,-3.4457,0,0,-3.4388,-3.4381,-3.44,-3.4417,-3.4417,-3.4447,-3.4383,-3.4416,-3.4438,-3.4382,-3.4429,-3.4425,-3.443,-3.4492,-3.4519,-3.4491,-3.4627,-3.4578,-3.4587,-3.459,-3.4628,-3.4645,-3.466,-3.4462,-3.4462,-3.4461,0,0,-3.4494,-3.449,-3.4535,-3.4537,-3.4539,-3.4523,-3.4534,-3.4527,-3.4522,-3.4569,-3.4528,-3.4555,-3.4597,-3.4603,-3.4612,-3.4723,-3.4692,-3.4731,-3.48,-3.4841,-3.4855,-3.4867,-3.491,-3.4925,-3.474,-3.474,-3.474,0,-3.4555,-3.4596,-3.4563,-3.46,-3.461,-3.4559,-3.4607,-3.4611,-3.462,-3.463,-3.4598,-3.4652,-3.4651,-3.4716,-3.4744,-3.4751,-3.4766,-3.4732,-3.4855,-3.4867,-3.4878,-3.4919,-3.4934,-3.4745,-3.4744,-3.4744,-3.4743,0,-3.4673,-3.4703,-3.474,-3.475,-3.4764,-3.4806,-3.4782,-3.48,-3.4778,-3.4766,-3.4817,-3.4815,-3.4837,-3.485,-3.4828,-3.4913,-3.4896,-3.4861,-3.4806,-3.4901,-3.4938,-3.4953,-3.4752,-3.475,-3.4749,-3.4748,0,0,-3.4826,-3.4818,-3.4833,-3.4838,-3.4837,-3.4861,-3.4902,-3.4922,-3.4941,-3.4949,-3.4985,-3.5023,-3.4991,-3.5001,-3.498,-3.5015,-3.5108,-3.4976,-3.4975,-3.5003,-3.5205,-3.5234,-3.5252,-3.5087,-3.5089,-3.5091,-3.5206,0,-3.4931,-3.4999,-3.4972,-3.5044,-3.5073,-3.5027,-3.5063,-3.5069,-3.506,-3.5085,-3.5076,-3.5104,-3.5058,-3.5064,-3.5097,-3.509,-3.5149,-3.5081,-3.5123,-3.5125,-3.5125,-3.5271,-3.53,-3.5408,-3.522,-3.5222,-3.5224,0,-3.5061,-3.5075,-3.515,-3.5147,-3.5158,-3.5191,-3.521,-3.5233,-3.5239,-3.5231,-3.5244,-3.5216,-3.5259,-3.5204,-3.5265,-3.522,-3.5236,-3.5235,-3.5239,-3.5243,-3.5181,-3.5282,-3.5441,-3.5459,-3.5246,-3.5245,-3.5243,0,-3.5169,-3.5206,-3.5257,-3.5262,-3.5259,-3.5284,-3.5285,-3.5288,-3.5303,-3.5319,-3.533,-3.5351,-3.5364,-3.5383,-3.5363,-3.5324,-3.5429,-3.5371,-3.5426,-3.5427,-3.5451,-3.5451,-3.5618,-3.5458,-3.5458,-3.5458,-3.5457,0,-3.5289,-3.5338,-3.5305,-3.5337,-3.5391,-3.536,-3.5415,-3.5411,-3.5415,-3.5446,-3.5408,-3.5439,-3.5409,-3.5439,-3.5424,-3.5479,-3.5485,-3.5481,-3.5477,-3.5486,-3.5487,-3.5497,-3.549,-3.5462,-3.5461,-3.546,-3.546,0,-3.5419,-3.5398,-3.5451,-3.5444,-3.5444,-3.5485,-3.548,-3.5511,-3.5499,-3.5541,-3.5549,-3.5532,-3.5565,-3.5547,-3.5581,-3.5571,-3.5644,-3.5628,-3.5641,-3.5638,-3.5695,-3.5691,-3.5877,-3.5902,-3.5724,-3.5726,-3.5727,0,-3.5498,-3.5534,-3.5532,-3.555,-3.5552,-3.5581,-3.5597,-3.5569,-3.5587,-3.5599,-3.5629,-3.5658,-3.5681,-3.5736,-3.5729,-3.5756,-3.5742,-3.5806,-3.5746,-3.5755,-3.5747,-3.5746,-3.5751,-3.5818,-3.582,-3.5822,-3.5823,0,-3.5641,-3.563,-3.5653,-3.5673,-3.5693,-3.5708,-3.572,-3.5737,-3.571,-3.5733,-3.5766,-3.5783,-3.5819,-3.585,-3.5873,-3.5876,-3.5847,-3.5842,-3.5857,-3.5867,-3.5875,-3.5874,-3.5677,-3.5838,-3.5837,-3.5836,-3.5835,-3.5834,-3.5749,-3.5781,-3.5785,-3.5812,-3.5819,-3.5832,-3.5861,-3.5854,-3.588,-3.5906,-3.5888,-3.5928,-3.5937,-3.5966,-3.5973,-3.6006,-3.5981,-3.6001,-3.6007,-3.6013,-3.6022,-3.5868,-3.601,-3.601,-3.6009,-3.6009,-3.6009,0,-3.5893,-3.5894,-3.5919,-3.5938,-3.5961,-3.5929,-3.5942,-3.5964,-3.5999,-3.6009,-3.6032,-3.6072,-3.6103,-3.6099,-3.6128,-3.6155,-3.6143,-3.6164,-3.6163,-3.6165,-3.6042,-3.6027,-3.6174,-3.6174,-3.6174,-3.6174,-3.6174,-3.6173,-3.5971,-3.6023,-3.6013,-3.607,-3.607,-3.6108,-3.6118,-3.6132,-3.614,-3.6186,-3.6211,-3.6207,-3.6213,-3.6242,-3.6271,-3.6269,-3.6283,-3.631,-3.6304,-3.6189,-3.6173,-3.6157,-3.6144,-3.6312,-3.6312,-3.6424,-3.6425,-3.6426]},{"header":{"parameterUnit":"m.s-1","parameterCategory":1,"la1":30.2991,"la2":30.254,"lo1":-89.0895,"lo2":-89.0444,"dy":0.0017,"dx":0.0017,"nx":28,"ny":28,"refTime":"2024-09-03T09:00:00:Z","depth":0,"parameterNumber":3,"parameterNumberName":"V-component_of_WINDS"},"data":[0,0,0,0,0,0,0,0,0,0,0,0,0,0,0,0,0,0,0,0,0,0,0,0,0,0,0,0,0,0,0,0,0,0,0,0,0,0,0,0,0,0,0,0,0,0,0,0,0,0,0,0,0,0,0,0,0,0,1.033,1.033,0,1.038,1.038,1.0381,1.0451,1.0452,1.0453,1.0454,1.0502,1.0502,1.0502,0,0,0,0,0,0,0,0,0,0,0,0,0,1.0293,1.0293,1.033,1.033,1.0331,1.0379,1.038,1.0381,1.0451,1.0452,1.0454,1.0455,1.0502,1.0502,1.0502,0,0,0,0,0,0,0,0,0,0,0,0,0,1.0322,1.0293,1.033,1.0372,1.0376,1.0379,1.038,1.0381,1.045,1.0452,1.0454,1.0456,1.0502,1.0502,1.0502,1.0467,0,0,1.0503,1.0503,0,0,0,0,0,0,0,0,1.032,1.0323,1.0365,1.0369,1.0374,1.0411,1.0385,1.041,1.045,1.0422,1.0454,1.0456,1.047,1.0473,1.0478,1.0469,1.0471,1.0503,1.0503,1.0503,1.0503,0,0,0,0,0,0,0,1.0318,1.0322,1.0349,1.0366,1.0371,1.0387,1.0394,1.039,1.0435,1.0425,1.043,1.0435,1.0473,1.0478,1.048,1.0472,1.0503,1.0503,1.0503,1.0503,1.0436,1.0434,0,0,0,0,0,0,1.031,1.032,1.0348,1.0351,1.0351,1.0387,1.0394,1.0397,1.0435,1.0443,1.0433,1.0438,1.0476,1.0479,1.0482,1.0442,1.0503,1.0503,1.0503,1.0438,1.0436,1.0434,0,0,0,0,0,0,1.0309,1.0312,1.0346,1.0337,1.0342,1.0385,1.0389,1.0397,1.0402,1.0442,1.045,1.043,1.0478,1.0481,1.047,1.0445,1.0503,1.0503,1.044,1.0437,1.0435,1.0363,0,0,0,0,0,0,1.0308,1.0312,1.0299,1.0336,1.0343,1.0334,1.0387,1.0397,1.0403,1.0409,1.0441,1.0448,1.048,1.047,1.047,1.0446,1.0504,1.0443,1.0439,1.0436,1.0367,1.0358,1.0349,0,0,0,0,0,1.0306,1.0276,1.0298,1.0301,1.0328,1.0333,1.0336,1.0374,1.0401,1.0388,1.0414,1.0447,1.0448,1.0468,1.0469,1.0444,1.0445,1.044,1.0436,1.0372,1.036,1.035,0,0,0,0,0,0,1.0234,1.0282,1.0307,1.0288,1.0306,1.0344,1.0329,1.036,1.037,1.0376,1.0421,1.0428,1.041,1.0427,1.0448,1.0412,1.0451,1.0447,1.0402,1.0391,1.0382,1.0377,1.0504,0,0,0,0,0,1.0216,1.0217,1.0258,1.0237,1.0245,1.0286,1.0289,1.0317,1.0337,1.0344,1.0369,1.0386,1.0391,1.0392,1.0398,1.0371,1.0378,1.0355,1.0346,1.0338,1.0333,1.0319,1.0309,1.042,1.042,1.042,0,0,1.0178,1.0205,1.0202,1.0223,1.0241,1.0239,1.0292,1.0288,1.0287,1.0344,1.0334,1.0353,1.0376,1.0356,1.0349,1.0369,1.0305,1.0333,1.0327,1.0326,1.0314,1.0303,1.0294,1.0417,1.0417,1.0418,0,0,1.0108,1.0129,1.0113,1.013,1.0156,1.0183,1.018,1.0214,1.0229,1.0221,1.0263,1.0263,1.0269,1.0283,1.0291,1.0227,1.0258,1.0228,1.018,1.0165,1.0156,1.0149,1.0124,1.0115,1.0224,1.0223,1.0223,0,1.0057,1.0058,1.0101,1.0095,1.0102,1.0156,1.014,1.0153,1.0179,1.0183,1.0206,1.0215,1.0234,1.0218,1.0202,1.0208,1.0204,1.0223,1.0154,1.0147,1.0141,1.0118,1.0109,1.022,1.022,1.022,1.0221,0,0.9993,0.9993,0.9977,1.0002,1.0008,0.9997,1.0038,1.0039,1.0066,1.0091,1.0082,1.0107,1.0118,1.0117,1.0144,1.0105,1.0116,1.0146,1.0186,1.0125,1.0104,1.0096,1.0214,1.0215,1.0216,1.0217,0,0,0.9876,0.9927,0.992,0.9931,0.9964,0.9964,0.9956,0.9968,0.9967,0.9984,0.9976,0.9981,1.001,1.0018,1.0047,1.0035,0.9981,1.0067,1.0068,1.0048,0.9937,0.9912,0.9902,1.0003,1.0002,1.0,0.9935,0,0.9811,0.9799,0.9838,0.9815,0.9815,0.9866,0.9858,0.9877,0.99,0.9902,0.9928,0.993,0.9968,0.9974,0.9964,0.9989,0.9959,0.9995,0.9994,0.9994,0.9984,0.9891,0.9865,0.9801,0.9927,0.9926,0.9925,0,0.9732,0.9745,0.9723,0.9757,0.9758,0.975,0.9765,0.9767,0.979,0.9807,0.9818,0.9852,0.9844,0.9885,0.9874,0.9898,0.99,0.9913,0.9911,0.991,0.9953,0.9885,0.9782,0.9772,0.9913,0.9914,0.9914,0,0.9646,0.9659,0.9647,0.9655,0.9696,0.9689,0.9705,0.973,0.9735,0.9747,0.9751,0.9762,0.9768,0.9775,0.9811,0.9838,0.9796,0.9839,0.9809,0.9807,0.9795,0.9795,0.9688,0.9801,0.9801,0.9801,0.9801,0,0.9567,0.955,0.9608,0.96,0.9584,0.9629,0.9611,0.9632,0.9654,0.965,0.9696,0.9692,0.9741,0.9742,0.977,0.9756,0.9759,0.9771,0.9779,0.9766,0.9764,0.9766,0.977,0.9799,0.9799,0.98,0.98,0,0.9467,0.9505,0.9495,0.9535,0.9545,0.953,0.9564,0.9557,0.9585,0.9579,0.9581,0.9622,0.9626,0.9663,0.9674,0.9694,0.9667,0.9684,0.966,0.9664,0.963,0.9632,0.9519,0.9506,0.9629,0.9628,0.9627,0,0.9412,0.9401,0.944,0.9441,0.9456,0.9458,0.9464,0.9509,0.9512,0.9538,0.9528,0.9535,0.9543,0.9546,0.9576,0.9585,0.9601,0.9561,0.9602,0.9589,0.9597,0.9596,0.9594,0.9551,0.9549,0.9548,0.9547,0,0.9311,0.9331,0.9338,0.9351,0.9357,0.937,0.9385,0.9383,0.9433,0.9435,0.9439,0.9446,0.9458,0.9464,0.9478,0.9494,0.9527,0.9534,0.9527,0.9512,0.9498,0.9503,0.9633,0.9536,0.9537,0.9538,0.9538,0.9539,0.9231,0.9223,0.9249,0.9255,0.9272,0.9285,0.9281,0.9308,0.9313,0.9327,0.9353,0.9353,0.9376,0.9399,0.9412,0.9412,0.9433,0.9423,0.942,0.9416,0.9408,0.95,0.9415,0.9416,0.9416,0.9416,0.9417,0,0.913,0.9149,0.9155,0.9175,0.918,0.9214,0.9233,0.9234,0.9234,0.9253,0.926,0.9265,0.9271,0.9303,0.9312,0.9306,0.9322,0.9307,0.9306,0.9309,0.9391,0.9395,0.9294,0.9294,0.9294,0.9294,0.9294,0.9294,0.9077,0.9065,0.9088,0.9085,0.9105,0.9106,0.9113,0.9126,0.9141,0.9144,0.915,0.9172,0.9196,0.9207,0.9214,0.9223,0.9223,0.9203,0.9216,0.9292,0.9303,0.9314,0.9318,0.9203,0.9203,0.9135,0.9134,0.9133]}]]